DECAYED

ELECTRON KICK STAGE R/B, 63026 (Decayed)

Orbit data source: Space-Track

ELECTRON KICK STAGE R/B, 63026 was space debris in LEO originally from a launch on Tue, 18 Feb 2025 UTC launched from the Rocket Lab Launch Complex (RLLC). Debris objects in space refer to the collection of defunct objects orbiting the Earth. Examples of debris include non-operational satellites, rocket bodies, and fragments generated from explosions, collisions, or faulty payload assembly.

Not visible in the next 10 days
Identifier
63026, 2025-033A
Orbit
Decayed
Country
Flag of USUS
Related business
Manufacturer
Rocket Lab
Mission
Decayed spacecraft
Bus & Motor
KICK STAGE, CURIE
Mass
40 kg wet, ~40 kg dry
Launch date (UTC)
2025-02-18 (1 year ago)
Launch vehicle
Unknown
Launch site
Rocket Lab Launch Complex (RLLC)
Object type
Payload
Rocket body
Debris
Shape & HBR
Trunc Cone, 1.0 m
Radar Cross Section
0.760 m², Large (>1 m²)

Expand to show TLE details & history
Last TLE update: 4 months ago

TLE from 4 months ago
0 ELECTRON KICK STAGE R/B
1 63026U 25033A   26054.55654025  .12448917  10728-4  13458-2 0  9990
2 63026  58.9629  23.9658 0003520 239.3970 235.6002 16.36810450 57334
Epoch: 2026-02-23T13:21Z
TLE epoch observation values (Epoch: 2026-02-23T13:21:25.077Z)
Latitude
51.11066°
Longitude
162.28222°
Altitude
182.259 km
Speed
7.802 km/s
True Right ascension
10h 24m 20s
True Declination
50° 55' 40"
Sunlit
Object was in full shadow at epoch
Visualization orbit readout
Latitude
Unknown
Longitude
Unknown
Altitude
Unknown
Speed
Unknown
Apparent Right ascension
Unknown
Apparent Declination
Unknown
Sunlit
N/A
Visualization observer readout
Local Sidereal Time
07:18:01
Azimuth
Unknown
Elevation
Unknown
Doppler factor
Unknown
Orbital elements
Apogee altitude
175.931 km
Perigee altitude
171.318 km
Semi-major axis
6,551.761 km
Eccentricity
0.00035
Inclination
58.9629°
RAAN
23.9658°
Arg. of periapsis
239.397°
True anomaly
235.56693°
Mean anomaly
235.6002°
Eccentric anomaly
235.58356°
Mean motion
4.09266 °/min
Orbital period
87.96 mins
BSTAR
0.0013458
Loading maneuver chart data...
Computing Atmospheric mass density...
Loading historical data...
Loading historical data...
Loading historical data...
Loading historical data...
Loading historical data...
Loading historical data...
Loading historical data...
Other satellites on launch #33 in the year 2025 (2025-02-18 UTC)

Documentation

Showing up to 5 results
|